Find Starlink 5821

NORAD ID: 57069 Int'l Des: 2023-088 Owner: SPXS Country: US Constellation: starlink operational
LEOCIRCULAR

現在のビュー

3D地球を読み込み中...

About Starlink 5821

Starlink 5821 (NORAD 57069) is a starlink constellation satellite (v1.5) launched Jun 22, 2023 by SPXS of US. It operates in LEO, CIRCULAR orbit with a mass of 305.00 kg.

次回通過

Passes for default location (London). Set your location on the main map for personalized predictions.

高度履歴

Loading altitude history...

軌道要素

1 57069U 23088X 26235.34719724 .00000070 00000-0 12077-4 0 9991
2 57069 43.0004 235.3454 0001193 270.9011 89.1704 15.27574522175811
Epoch: Aug 23, 2026 • Age: 25 hours

現在のステータス

高度 495.5 km
遠地点 / 近地点 N/A
速度 7.62 km/s
衛星直下点 -42.87°S, 38.83°E
打ち上げ日 Jun 22, 2023
運用期間 3.1 years
タイプ internet

技術仕様

分類 Payload
質量 305.00 kg
乾燥質量 290.00 kg
総質量 305.00 kg
長さ 0.20 m
直径 2.80 m
スパン 9.00 m
形状 Box + pan
製造者 SPXS
バスタイプ Starlink
フェーズステータス In Orbit
所有者/国 SPXS/US

Most Searched